Location: Placitas Homesteads
(35.3081°N, 106.4903°W)
Time: 23:29:10
(UTC+00:00)

Daily predictions for brighter satellites

Satellite Brightness Start Highest point End
(mag) Time Altitude Azimuth Time Altitude Azimuth Time Altitude Azimuth
Cosmos 1484 Rocket 3.0 12:01:41 10° N 12:05:33 52° WNW 12:09:27 10° SSW
Cosmos 44 Rocket 3.4 12:06:50 10° SSW 12:11:29 76° ESE 12:16:17 10° NNE
Meteor 1-4 Rocket 4.0 12:10:04 12° WSW 12:12:00 18° WNW 12:14:25 10° NNW
Meteor 1-11 Rocket 3.8 12:08:25 10° NNW 12:14:02 55° W 12:19:31 10° S
Cosmos 1437 Rocket 3.4 12:11:18 10° S 12:14:58 58° E 12:18:43 10° NNE
Meteor 1-31 Rocket 3.0 12:12:23 10° N 12:16:03 46° WNW 12:19:44 10° SSW
Cosmos 1898 Rocket 3.5 12:11:13 10° NNW 12:16:28 75° WSW 12:21:44 10° S
Cosmos 2208 Rocket 4.1 12:11:17 10° SSW 12:16:34 88° ESE 12:21:48 10° NNE
COSMO-SKYMED 1 3.0 12:15:56 10° SSE 12:20:13 70° ENE 12:24:33 10° N
Meteor 1-27 Rocket 4.3 12:17:27 10° SW 12:22:56 39° WNW 12:28:28 10° N
ADEOS 4.3 12:18:24 10° N 12:23:02 33° WNW 12:27:38 10° SW
ERS-2 3.8 12:22:37 10° SW 12:24:33 14° W 12:26:30 10° WNW
Meteor 2-20 4.5 12:21:27 10° SSW 12:27:33 67° W 12:33:39 10° N
Cosmos 2100 Rocket 4.1 12:22:01 10° NNW 12:28:16 59° W 12:34:29 10° S
SJ-12 4.0 12:25:27 10° N 12:29:31 58° WNW 12:33:33 10° SSW
Cosmos 1802 Rocket 4.0 12:23:35 10° N 12:29:46 79° W 12:36:02 10° S
Cosmos 858 Rocket 4.5 12:24:45 10° NNW 12:29:57 81° WSW 12:35:08 10° SSE
